STARLINK-3863, 52465

Orbit data source: Space-Track

STARLINK-3863, 52465 is a payload satellite owned by SpaceX/Seattle (US) in LEO that was launched on Fri, 06 May 2022 UTC via an FALCON 9 launch vehicle from the Air Force Eastern Test Range (AFETR). Payload-class satellites include a variety of spacecraft equipped with specific instruments for various scientific and technological missions. These include communications satellites like Starlink; space stations such as the ISS; scientific satellites like the Hubble; Earth observation satellites from companies like Planet Labs, Umbra, and HawkEye 360; GPS; miniature CubeSats for education and research; and military/defense satellites.

Loading next visibility...
Identifier
52465, 2022-049Q
Orbit
LEO
Country
Flag of USUS
Related business
Manufacturer
SpaceX/Seattle
Mission
Operational Commercial Communications
Bus & Motor
STARLINK, Unknown motor
Mass
297 kg wet, ~220 kg dry
Launch date (UTC)
2022-05-06 (4 years ago)
Launch vehicle
FALCON 9
Launch site
Air Force Eastern Test Range (AFETR)
Object type
Payload
Rocket body
Debris
Shape & HBR
Box + 1 Pan, 10.1 m
Radar Cross Section
13.562 m², Large (>1 m²)

Expand to show TLE details & history
Last TLE update: 1 day ago

TLE from 1 day ago
0 STARLINK-3863
1 52465U 22049Q   26235.10646095 -.00000295  00000-0  24593-5 0  9993
2 52465  53.1629  17.1280 0001004  94.6636 265.4482 15.35396443237576
Epoch: 2026-08-23T02:33Z
TLE epoch observation values (Epoch: 2026-08-23T02:33:18.226Z)
Latitude
0.00002°
Longitude
7.3948°
Altitude
460.7 km
Speed
7.638 km/s
True Right ascension
01h 08m 30s
True Declination
0° 00' 00"
Sunlit
Object was in full shadow at epoch
Visualization orbit readout
Latitude
Unknown
Longitude
Unknown
Altitude
Unknown
Speed
Unknown
Apparent Right ascension
Unknown
Apparent Declination
Unknown
Sunlit
N/A
Visualization observer readout
Local Sidereal Time
00:47:25
Azimuth
Unknown
Elevation
Unknown
Doppler factor
Unknown
Orbital elements
Apogee altitude
460.686 km
Perigee altitude
459.313 km
Semi-major axis
6,838.137 km
Eccentricity
0.0001
Inclination
53.1629°
RAAN
17.128°
Arg. of periapsis
94.6636°
True anomaly
265.43673°
Mean anomaly
265.4482°
Eccentric anomaly
265.44247°
Mean motion
3.83828 °/min
Orbital period
93.79 mins
BSTAR
0.0000024593
Loading maneuver chart data...
Computing Atmospheric mass density...
Loading historical data...
Loading historical data...
Loading historical data...
Loading historical data...
Loading historical data...
Loading historical data...
Loading historical data...

Documentation

Showing up to 5 results
|